Temp
9 8 6 5 4 3 3 3 3 3 3 3 3 3 2 2 2 1 2 3 7 7 8 8 6 5 4 5 6 8 7 8 7 6 7 8 9 11 10 12 12 11 15 15 15 17 18
8 6 5 3 3 3 3 3 3 3 3 2 2 1 1 1 1 2 4 6 6 7 6 6 4 3 4 5 8 6 8 7 7 6 7 9 10 11 11 13 12 12 12 15 15 15 15
7 4 3 3 3 3 3 3 3 2 2 1 1 1 1 2 1 1 2 4 5 6 6 6 6 2 3 5 7 6 6 6 7 7 7 8 10 11 11 12 12 12 11 11 13 14 15
5 3 3 3 2 3 3 2 1 1 1 1 1 1 3 3 2 2 2 3 5 5 5 5 5 3 4 6 6 6 6 6 7 6 7 8 9 10 12 13 12 11 10 9 11 11 12
4 3 3 3 4 4 3 2 1 1 1 1 1 0 3 3 3 2 2 3 4 4 5 5 5 5 6 6 5 5 5 6 7 7 7 8 8 8 11 10 10 10 10 9 11 12 12
3 3 3 6 6 6 3 2 3 2 1 0 2 2 3 3 3 3 2 2 5 4 6 5 4 5 4 3 3 5 5 5 6 8 7 7 8 7 8 9 9 10 9 12 11 13 13
3 2 6 7 6 5 5 5 4 2 2 2 3 3 4 4 4 3 1 3 2 4 1 2 2 3 4 4 4 5 6 6 6 7 7 6 7 7 7 10 9 13 13 12 14 14 13
2 4 5 6 6 6 5 4 3 2 3 3 3 3 4 4 4 2 1 1 -1 -2 -0 3 2 2 4 3 3 3 2 5 7 5 8 5 5 8 11 7 8 8 11 12 14 15 13
2 4 6 6 6 6 5 4 4 3 3 3 3 3 4 4 4 2 2 1 -1 -1 0 5 3 3 4 4 1 2 2 1 4 8 8 6 8 7 5 9 7 8 9 11 12 11 12
2 6 6 6 6 5 5 5 4 3 3 3 3 3 4 4 4 2 3 1 1 -1 2 5 5 5 4 5 3 2 2 -0 4 6 8 9 10 8 5 4 6 7 9 11 11 10 9
5 6 6 6 5 5 5 5 4 4 4 3 4 3 3 4 2 3 2 3 2 -0 3 5 5 4 5 5 3 4 2 2 1 2 5 6 7 8 5 7 5 5 6 8 6 7 10
6 6 6 6 5 5 5 4 4 4 4 4 4 3 3 3 2 3 4 4 1 4 1 4 5 5 5 5 5 4 3 2 0 1 3 4 4 7 7 7 8 5 5 5 5 6 7
6 6 5 5 5 5 4 4 4 4 4 4 4 3 2 1 1 4 4 3 6 2 4 2 3 5 5 4 4 4 3 2 1 1 2 3 2 2 3 6 6 5 5 6 6 7 8
6 5 5 4 4 4 4 4 4 4 4 5 4 4 2 3 3 4 4 7 2 2 2 3 3 4 4 4 4 4 3 2 2 1 0 1 2 1 1 2 4 5 8 8 7 8 9
6 5 4 4 4 3 4 4 3 4 4 5 4 3 3 3 3 3 5 2 0 0 1 2 3 3 3 4 3 4 3 2 1 1 -1 0 2 1 1 1 2 4 5 5 5 8 10
5 5 4 3 3 3 3 3 3 4 4 4 4 3 2 2 2 3 4 1 1 2 2 2 1 1 1 2 2 3 2 2 1 1 2 1 1 1 1 1 1 2 3 4 4 6 6
5 4 4 4 3 3 3 3 2 4 4 4 3 4 1 2 2 3 1 0 1 1 1 1 -0 1 1 -0 1 1 -0 1 1 1 2 1 0 1 3 0 1 2 2 2 4 4 6
5 4 4 4 3 3 3 2 2 3 3 4 2 4 0 1 3 2 1 1 1 1 1 1 1 0 -0 0 0 -0 -0 -1 0 1 -0 1 -0 0 -0 -1 -0 -0 -0 0 2 4 5
4 4 4 3 3 3 2 2 2 2 2 1 1 1 0 1 1 1 1 1 1 1 1 0 -0 0 0 0 -1 -1 0 0 0 1 -0 -0 0 0 1 0 2 0 -0 -0 0 1 4
4 4 3 3 2 2 2 2 2 2 2 1 1 3 2 1 0 1 0 -0 0 0 -0 -0 0 -0 -1 -1 0 -1 -1 -0 0 -0 -0 1 -0 -1 -1 -1 0 -0 1 0 0 3 3
4 4 3 2 2 2 2 2 1 2 1 -1 -0 0 -2 0 0 1 -0 -1 -1 -1 -1 0 -0 -1 -3 -3 -2 -2 -2 -1 0 -1 -1 -2 -1 -1 0 -0 0 0 0 0 0 0 2
4 4 3 2 2 2 1 1 1 1 1 -1 -1 -2 -2 -0 -0 1 -0 -2 -2 -1 -1 -1 -2 -2 -2 -3 -4 -4 -5 -2 -2 -2 -1 -1 -1 -1 -1 0 0 -0 -1 0 -0 -1 1
4 4 3 2 2 2 1 0 1 1 0 -2 -3 -3 -3 -2 0 0 -2 -2 -2 -2 -2 -2 -3 -3 -2 -3 -4 -4 -4 -3 -3 -3 -2 -3 -2 -1 -1 0 0 -0 -2 -2 -2 -2 -1
4 4 3 3 2 2 1 1 0 -0 -0 -2 -3 -3 -2 -0 0 -1 -2 -1 -2 -2 -4 -3 -3 -4 -2 -4 -4 -4 -3 -2 -1 -0 -1 -3 -3 -1 -1 0 -1 -2 -0 -1 -2 -3 -3
4 4 3 2 2 2 2 1 1 -0 -1 -1 -2 -3 -3 -1 -2 -0 -2 -3 -2 -2 -2 -4 -3 -4 -5 -4 -1 -1 0 -0 0 -0 -1 -3 -2 -2 -2 -1 -1 -1 -2 -3 -3 -3 -3
4 3 3 2 2 2 2 1 0 -0 -1 -2 -2 -3 -4 -3 -1 -5 -3 -2 -3 -3 -2 -2 -4 -4 -5 -1 0 -1 -2 -2 -2 -1 0 -2 -4 -2 -1 -2 -2 -4 -4 -4 -3 -2 -4
4 4 3 3 2 2 1 1 1 -0 -1 -1 -2 -3 -4 -4 -3 -4 -3 -4 -5 -4 -3 -2 -5 -5 -3 -1 -1 -2 -1 -2 -2 -3 -3 -1 -1 -1 -1 -1 -2 -5 -5 -3 -2 -4 -5
4 3 3 3 2 2 1 1 0 -0 -1 -1 -2 -2 -3 -5 -4 -4 -4 -5 -5 -5 -4 -5 -3 -4 -3 -2 -2 -2 -2 -2 -3 -2 -3 -3 -3 -1 -1 -2 -3 -6 -3 -3 -6 -5 -6
4 3 3 3 2 1 1 0 0 -0 -1 -2 -3 -3 -3 -5 -4 -4 -5 -5 -5 -6 -7 -6 -6 -5 -5 -4 -3 -3 -3 -2 -2 -2 -1 -3 -4 -4 -4 -3 -5 -7 -7 -8 -7 -7 -7
Height
1547 1542 1538 1533 1529 1525 1520 1515 1510 1504 1499 1494 1489 1483 1477 1469 1462 1455 1448 1442 1436 1431 1427 1423 1422 1422 1425 1422 1412 1412 1409 1409 1411 1413 1414 1416 1420 1423 1422 1425 1430 1426 1427 1428 1432 1430 1431
1547 1542 1538 1534 1529 1525 1520 1515 1509 1503 1497 1490 1484 1478 1472 1464 1457 1450 1442 1435 1429 1423 1418 1415 1415 1417 1418 1411 1409 1406 1406 1406 1409 1410 1411 1414 1411 1414 1418 1419 1420 1421 1428 1425 1427 1429 1431
1547 1542 1538 1534 1529 1525 1519 1513 1507 1501 1495 1489 1481 1474 1467 1459 1452 1444 1436 1429 1422 1415 1410 1406 1405 1407 1409 1401 1405 1403 1405 1405 1406 1405 1406 1408 1413 1411 1416 1416 1417 1421 1423 1426 1422 1426 1426
1547 1542 1538 1535 1530 1523 1517 1512 1506 1499 1494 1487 1479 1472 1464 1456 1448 1440 1433 1425 1417 1411 1407 1402 1399 1403 1401 1399 1403 1403 1401 1399 1401 1400 1401 1405 1408 1410 1405 1406 1408 1411 1419 1417 1416 1424 1426
1547 1543 1539 1534 1528 1522 1516 1510 1504 1498 1492 1485 1478 1470 1462 1454 1446 1438 1431 1422 1414 1410 1406 1403 1402 1401 1399 1398 1400 1400 1398 1395 1394 1396 1397 1400 1404 1402 1403 1400 1409 1403 1397 1409 1412 1415 1421
1547 1544 1539 1533 1528 1522 1516 1510 1503 1497 1491 1484 1477 1469 1462 1454 1446 1438 1429 1422 1414 1411 1405 1405 1403 1403 1401 1400 1397 1395 1396 1392 1389 1390 1393 1393 1395 1393 1394 1391 1376 1386 1400 1394 1401 1403 1410
1549 1544 1539 1533 1528 1521 1516 1509 1503 1497 1490 1482 1475 1468 1461 1454 1445 1438 1428 1423 1418 1418 1416 1422 1421 1417 1409 1402 1397 1396 1393 1391 1388 1385 1383 1385 1380 1377 1374 1380 1388 1378 1380 1389 1384 1394 1398
1550 1544 1539 1533 1528 1522 1516 1510 1503 1497 1490 1482 1475 1469 1462 1455 1447 1440 1437 1433 1436 1437 1429 1421 1418 1417 1413 1407 1402 1397 1394 1391 1383 1380 1376 1379 1369 1369 1374 1383 1385 1392 1381 1379 1380 1382 1391
1550 1544 1539 1535 1529 1523 1516 1510 1504 1497 1490 1483 1475 1469 1463 1456 1447 1444 1440 1439 1434 1432 1431 1419 1419 1417 1412 1407 1405 1400 1398 1393 1384 1369 1366 1365 1364 1372 1379 1372 1381 1380 1383 1381 1383 1392 1393
1549 1545 1541 1535 1529 1523 1517 1510 1504 1497 1490 1482 1475 1469 1463 1455 1449 1443 1440 1434 1430 1430 1423 1419 1418 1417 1412 1404 1402 1402 1399 1396 1382 1371 1365 1358 1356 1363 1374 1375 1376 1378 1375 1374 1381 1389 1391
1550 1546 1541 1535 1529 1523 1517 1511 1504 1497 1489 1482 1476 1469 1463 1454 1449 1446 1440 1432 1429 1430 1414 1425 1422 1420 1413 1409 1410 1402 1399 1393 1388 1383 1377 1365 1364 1360 1369 1366 1380 1374 1379 1380 1388 1389 1381
1550 1546 1541 1535 1529 1523 1518 1511 1505 1497 1490 1483 1476 1471 1462 1455 1451 1446 1438 1432 1430 1422 1434 1426 1427 1419 1411 1408 1407 1404 1401 1395 1390 1386 1377 1374 1377 1369 1366 1368 1371 1378 1382 1386 1390 1388 1382
1550 1546 1540 1535 1529 1524 1518 1512 1505 1497 1490 1483 1477 1471 1465 1460 1452 1443 1437 1432 1423 1437 1438 1437 1431 1421 1412 1413 1407 1405 1402 1400 1402 1392 1383 1376 1380 1382 1380 1371 1374 1381 1379 1379 1381 1376 1370
1551 1545 1540 1535 1530 1524 1519 1512 1505 1498 1490 1483 1478 1474 1470 1462 1454 1446 1440 1430 1442 1449 1448 1444 1434 1422 1415 1416 1412 1403 1405 1405 1408 1404 1396 1387 1379 1385 1387 1384 1377 1374 1366 1360 1368 1362 1361
1550 1546 1540 1536 1531 1525 1519 1512 1505 1498 1492 1484 1478 1476 1471 1463 1457 1451 1445 1449 1463 1461 1456 1447 1434 1428 1421 1418 1417 1407 1408 1413 1414 1411 1412 1400 1387 1389 1388 1388 1386 1376 1374 1378 1378 1361 1350
1550 1546 1541 1536 1530 1525 1519 1513 1506 1499 1492 1483 1479 1477 1474 1468 1463 1458 1454 1463 1465 1463 1458 1451 1444 1441 1432 1428 1422 1414 1413 1419 1418 1415 1411 1407 1395 1392 1390 1388 1387 1382 1382 1376 1380 1371 1366
1551 1546 1541 1536 1531 1525 1520 1514 1507 1500 1493 1484 1479 1478 1479 1472 1470 1466 1468 1471 1469 1466 1461 1457 1454 1446 1442 1440 1429 1426 1426 1424 1424 1417 1412 1410 1406 1398 1387 1400 1397 1388 1387 1385 1380 1379 1361
1551 1546 1542 1537 1531 1526 1521 1515 1508 1502 1494 1486 1483 1482 1484 1476 1472 1473 1472 1476 1473 1468 1465 1462 1458 1454 1451 1443 1435 1433 1432 1434 1431 1423 1419 1413 1412 1405 1408 1411 1407 1405 1405 1400 1391 1377 1372
1551 1547 1542 1537 1532 1528 1523 1517 1510 1505 1497 1490 1490 1490 1488 1483 1481 1479 1480 1479 1474 1472 1470 1466 1463 1461 1455 1448 1445 1442 1436 1438 1434 1429 1428 1424 1416 1408 1402 1410 1405 1410 1410 1407 1402 1397 1380
1552 1547 1542 1538 1533 1529 1524 1519 1513 1507 1501 1495 1494 1491 1491 1490 1493 1489 1485 1484 1478 1476 1475 1471 1468 1463 1459 1452 1450 1448 1443 1442 1438 1436 1431 1427 1425 1426 1425 1425 1423 1419 1411 1411 1407 1391 1393
1551 1547 1543 1539 1534 1529 1525 1520 1515 1510 1504 1500 1500 1503 1504 1496 1494 1492 1493 1491 1484 1481 1478 1474 1470 1470 1470 1465 1457 1453 1452 1446 1441 1442 1437 1436 1430 1432 1426 1425 1422 1420 1420 1417 1414 1415 1405
1551 1547 1543 1540 1536 1531 1526 1522 1517 1512 1507 1505 1506 1507 1505 1503 1500 1494 1496 1494 1490 1485 1482 1477 1478 1475 1472 1469 1471 1466 1465 1454 1451 1447 1442 1441 1433 1432 1427 1424 1422 1422 1424 1421 1422 1421 1414
1551 1547 1543 1539 1535 1531 1527 1523 1519 1514 1509 1509 1509 1508 1508 1506 1501 1497 1501 1498 1493 1489 1484 1483 1482 1478 1471 1472 1470 1467 1465 1461 1458 1454 1447 1446 1441 1433 1429 1424 1423 1424 1438 1436 1435 1434 1430
1551 1547 1543 1539 1535 1531 1528 1524 1521 1517 1514 1512 1511 1510 1509 1505 1503 1503 1502 1499 1496 1493 1491 1485 1483 1480 1474 1471 1467 1464 1462 1460 1455 1451 1450 1450 1446 1437 1430 1424 1429 1443 1441 1441 1441 1442 1440
1550 1546 1543 1540 1536 1532 1529 1525 1523 1519 1516 1514 1512 1512 1510 1507 1507 1503 1504 1502 1497 1493 1489 1487 1484 1482 1475 1469 1462 1456 1449 1453 1451 1452 1452 1453 1447 1441 1440 1430 1437 1441 1447 1449 1447 1447 1447
1550 1546 1542 1539 1536 1532 1529 1526 1524 1520 1518 1515 1513 1512 1511 1511 1508 1509 1506 1502 1499 1494 1488 1485 1483 1478 1475 1467 1460 1460 1459 1462 1457 1452 1451 1452 1453 1447 1437 1437 1442 1457 1454 1451 1448 1444 1453
1548 1545 1541 1538 1535 1533 1530 1527 1524 1521 1518 1516 1514 1512 1511 1510 1509 1508 1507 1507 1505 1501 1493 1487 1487 1481 1478 1470 1464 1467 1461 1468 1462 1463 1459 1450 1448 1444 1444 1442 1449 1461 1456 1451 1444 1464 1459
1547 1544 1541 1538 1535 1532 1530 1527 1525 1522 1519 1517 1514 1512 1512 1510 1509 1508 1508 1507 1505 1504 1500 1494 1487 1487 1484 1477 1477 1474 1470 1471 1471 1467 1466 1462 1461 1450 1447 1447 1456 1465 1455 1455 1469 1465 1463
1546 1543 1540 1538 1535 1532 1529 1527 1525 1522 1519 1516 1513 1512 1509 1509 1508 1507 1506 1506 1505 1504 1503 1500 1500 1497 1496 1490 1485 1483 1476 1473 1471 1464 1464 1464 1472 1468 1469 1466 1474 1473 1472 1471 1469 1467 1465
Wind_Speed
24 25 25 26 26 25 26 27 30 31 31 31 31 32 33 35 37 38 39 39 37 35 32 29 24 17 10 19 24 20 24 13 11 29 37 42 39 38 30 26 32 28 23 30 38 25 24
25 25 26 25 25 28 29 29 29 30 30 32 33 35 36 37 38 38 38 38 32 32 32 28 21 13 18 23 16 12 16 13 10 33 36 39 29 45 28 25 29 12 25 29 21 33 23
26 25 25 27 28 27 26 28 31 30 32 34 36 36 37 40 38 38 37 34 30 28 28 27 25 19 24 30 11 9 16 12 12 27 33 39 36 34 35 19 40 37 16 21 26 21 23
25 25 27 26 25 27 30 31 31 31 33 33 35 37 40 38 37 34 34 37 26 22 19 16 8 12 12 3 17 19 18 18 21 20 31 27 34 26 33 27 6 20 17 14 20 20 10
25 27 26 25 29 32 32 32 32 31 32 35 35 36 39 39 35 36 38 36 25 14 19 9 3 9 4 1 9 8 16 17 18 21 28 27 29 37 21 20 16 16 20 20 19 17 23
26 25 25 29 32 34 33 32 31 33 34 35 36 34 38 39 36 36 36 32 17 11 25 5 16 7 6 25 28 24 16 13 18 19 24 27 21 13 19 18 22 21 18 21 23 26 24
24 25 28 31 33 35 34 32 32 33 35 37 35 34 37 39 37 35 35 24 26 5 22 10 11 8 18 25 14 15 13 18 15 22 18 27 13 20 24 29 18 20 23 24 19 23 25
23 25 29 31 33 33 33 32 31 33 35 37 35 33 35 37 32 29 23 21 13 11 9 6 8 9 17 16 14 21 24 13 15 17 19 6 13 28 24 16 19 19 25 24 17 19 23
24 27 29 30 31 32 33 31 32 33 35 36 34 32 33 34 24 24 21 21 15 5 5 6 7 8 22 23 10 19 18 16 16 22 21 18 10 16 5 25 22 23 25 23 19 9 15
23 27 27 28 31 32 32 31 31 32 35 36 34 30 33 33 19 25 22 29 11 3 4 14 22 14 28 24 3 12 18 7 5 20 23 18 20 14 6 4 15 26 24 25 19 18 17
27 27 26 28 30 31 32 30 31 32 34 35 32 25 32 32 23 24 31 24 7 2 3 15 20 20 22 20 11 18 15 6 7 13 5 14 14 14 9 9 11 1 11 19 11 19 13
25 25 26 29 30 31 32 32 31 32 35 34 30 24 34 31 23 26 24 17 4 3 6 12 22 20 16 21 16 19 12 15 4 7 6 12 8 6 11 7 7 4 11 6 4 6 7
25 24 26 29 29 30 33 34 31 32 35 32 23 24 35 22 27 29 21 12 4 9 14 17 24 21 15 19 15 14 17 19 13 9 7 7 2 3 7 5 2 10 11 4 6 7 4
25 25 26 28 29 30 32 34 32 33 33 30 21 20 31 23 26 20 17 3 9 16 17 22 19 17 12 20 16 13 15 15 15 17 10 8 3 8 4 3 3 19 17 8 10 9 12
25 25 26 27 28 29 31 33 33 34 33 29 20 14 37 27 24 22 18 11 7 12 15 16 19 16 17 21 15 15 9 15 11 15 11 8 4 3 3 4 4 6 5 4 1 4 9
24 24 26 28 27 28 30 32 33 35 33 29 19 9 36 26 24 20 10 14 8 16 16 17 15 13 19 20 15 16 14 15 15 17 13 9 5 11 4 4 1 4 2 5 2 5 6
25 24 25 26 26 26 28 31 33 35 33 25 15 5 29 24 16 19 12 15 12 20 19 12 14 15 18 17 16 13 12 7 18 17 11 11 6 7 4 10 14 4 3 5 1 2 2
24 25 25 26 25 25 27 30 32 34 34 26 11 5 24 20 20 17 12 18 14 17 20 12 14 14 15 16 9 12 13 12 21 18 11 11 4 4 5 4 4 14 9 6 4 2 0
24 24 25 26 26 26 27 29 30 32 32 23 5 6 14 24 9 13 14 16 12 13 16 15 12 12 18 10 7 15 15 13 17 16 14 9 6 4 2 4 10 8 11 10 4 4 4
23 23 24 24 24 25 25 26 28 30 28 17 5 5 8 20 20 14 13 15 15 13 9 16 10 12 15 9 13 9 15 12 11 19 19 7 5 7 5 4 7 10 15 13 9 3 4
23 23 23 23 23 24 24 25 26 27 24 10 8 5 5 7 13 12 14 13 16 15 8 16 9 17 11 6 12 13 13 11 10 17 12 5 6 6 5 5 8 9 13 13 11 9 6
22 22 22 21 21 21 22 25 25 26 23 15 5 5 5 8 12 12 13 12 15 17 7 12 13 17 8 8 8 10 9 9 7 10 10 9 5 6 5 8 8 8 16 13 12 12 8
21 22 22 19 19 19 20 22 23 24 24 8 7 4 2 4 9 10 10 12 13 15 5 11 13 13 9 13 19 14 8 9 6 7 9 7 7 7 3 8 5 2 13 10 8 10 9
20 21 20 19 18 18 18 19 20 21 22 15 9 5 3 3 6 7 11 13 15 14 7 13 14 9 10 23 10 5 8 5 5 11 8 6 7 3 4 5 2 4 8 5 7 11 12
19 19 18 18 17 16 16 17 17 16 18 16 11 5 3 2 5 6 13 11 16 18 11 7 15 14 20 11 4 4 3 3 4 6 10 4 4 3 4 5 5 6 10 5 6 7 13
18 18 17 16 15 15 15 16 16 14 15 14 12 9 4 3 3 3 7 10 7 12 12 6 16 12 14 3 3 4 5 6 5 7 8 2 3 3 4 4 6 11 11 13 7 4 15
17 16 15 15 14 15 14 14 14 14 14 13 9 9 4 2 2 4 4 4 7 10 7 7 18 11 15 6 5 5 4 3 5 7 9 9 5 7 8 3 5 12 17 11 3 6 11
15 15 15 14 14 14 14 14 15 15 14 13 9 9 6 2 5 2 4 4 6 7 6 14 6 7 7 7 5 4 4 5 4 3 6 6 6 5 5 4 4 23 4 5 7 7 9
14 14 12 13 14 14 14 13 16 16 14 13 7 9 11 2 4 5 7 4 4 5 4 7 3 6 5 3 3 3 3 2 4 2 2 2 4 4 5 4 4 7 9 7 9 7 9
Wind_Direction
11 9 5 4 5 2 2 359 357 354 350 345 340 337 331 329 326 325 322 318 315 312 306 300 290 272 242 225 245 275 291 275 212 198 204 201 206 204 212 214 212 222 230 222 237 249 239
11 6 6 7 7 6 3 357 351 349 347 341 334 335 334 332 331 329 325 323 320 304 297 291 281 260 236 243 250 271 271 262 227 206 210 206 212 205 211 228 212 204 225 240 233 233 245
9 8 8 11 7 2 356 355 351 351 345 342 341 339 340 342 335 331 330 343 333 318 306 297 281 244 241 239 251 255 312 292 237 213 215 214 213 209 211 214 234 220 208 225 231 228 230
10 9 11 5 0 359 359 356 353 350 352 349 348 345 348 351 345 344 346 346 335 331 320 313 299 211 241 282 259 280 286 265 251 240 219 220 219 234 227 221 216 218 235 212 210 217 242
11 13 6 1 1 5 1 358 358 357 356 352 349 347 353 354 354 354 349 354 338 335 344 340 309 221 292 323 354 309 316 285 246 236 233 219 218 225 221 217 219 198 223 224 227 214 207
15 8 2 5 8 5 4 2 3 2 356 352 352 354 357 357 352 350 352 349 5 18 349 28 10 348 8 333 325 306 310 311 243 228 222 214 210 202 226 215 213 203 216 229 218 212 215
10 6 7 11 7 7 5 5 4 0 358 354 355 355 355 357 352 349 357 357 16 9 17 11 344 335 330 337 339 353 309 287 272 247 219 207 203 217 211 213 229 220 213 220 229 210 210
6 6 10 8 7 6 6 5 3 1 358 354 352 354 354 356 353 356 4 19 16 314 313 334 348 332 343 340 309 340 346 315 247 244 230 182 228 224 214 211 210 229 243 234 230 215 203
4 7 9 5 5 6 6 5 3 359 357 355 352 352 350 352 354 348 359 351 326 312 258 358 332 328 346 333 354 353 346 316 278 246 237 236 233 209 252 215 207 214 228 234 233 212 213
5 5 3 2 5 5 4 6 3 360 357 355 354 349 350 346 359 350 344 341 336 255 256 28 13 1 343 345 45 4 12 331 278 246 249 264 268 199 172 226 208 218 228 222 213 189 206
5 1 360 4 5 3 4 4 1 359 357 357 352 345 348 351 345 341 331 342 332 184 347 351 354 340 337 14 346 353 352 327 349 324 252 235 256 251 222 211 191 98 180 214 187 202 200
5 359 1 5 4 2 3 3 0 359 358 358 351 350 349 352 342 341 342 332 322 256 354 349 349 346 356 5 19 356 357 11 251 325 259 270 323 335 260 256 214 110 150 155 151 197 211
0 0 4 4 3 1 4 1 1 1 358 357 353 1 3 352 337 339 347 322 284 26 2 348 338 337 7 7 356 26 19 30 23 332 352 266 54 358 11 224 205 188 165 150 204 201 182
1 2 4 3 2 2 3 1 4 3 358 355 353 352 358 1 352 356 347 7 40 359 2 335 329 337 12 15 345 4 26 22 22 360 308 348 68 355 20 327 238 202 207 216 215 209 211
1 2 3 3 2 2 2 4 5 5 358 355 358 26 11 8 18 13 25 43 23 356 336 332 324 353 347 353 343 349 42 22 10 7 355 359 14 356 15 340 313 158 200 102 22 319 212
1 2 5 3 360 3 3 5 6 5 1 357 6 19 12 16 27 26 37 46 0 360 343 335 356 347 354 353 346 349 11 24 3 358 347 348 298 27 351 306 55 327 66 145 210 198 176
3 5 3 0 2 3 4 7 7 4 6 5 18 22 3 31 18 42 40 16 359 347 358 345 353 347 354 346 338 356 13 39 5 348 355 349 346 348 22 25 24 24 33 346 333 343 228
2 5 4 2 3 3 6 9 9 5 7 15 20 38 3 15 35 34 26 13 9 7 11 12 6 351 350 347 330 11 13 11 357 350 4 1 330 332 65 65 18 50 23 15 347 136 37
1 2 2 3 4 6 7 9 11 10 9 10 20 29 11 25 25 16 9 12 21 13 17 3 360 355 341 351 337 9 15 8 8 11 5 335 4 320 199 184 26 34 18 4 319 255 21
359 0 3 2 3 5 8 9 12 12 14 28 16 8 13 29 30 16 359 5 7 13 356 357 10 0 349 354 354 358 357 354 1 7 358 348 18 23 39 13 334 358 12 7 4 358 337
357 0 1 2 2 4 7 10 13 14 19 40 26 43 6 1 8 2 6 10 4 6 349 7 349 7 2 333 346 4 357 340 351 3 3 21 11 18 25 7 4 21 23 12 24 8 24
357 358 1 1 2 5 5 11 14 16 22 37 38 5 357 6 357 0 13 5 354 348 333 343 349 344 354 348 348 316 337 0 18 338 4 349 4 339 10 2 16 40 22 11 13 2 38
358 357 359 1 3 6 5 10 11 16 27 39 35 14 12 347 353 8 6 346 338 355 329 347 345 331 338 346 322 296 271 297 313 322 347 356 342 342 36 343 335 135 13 8 344 26 350
355 356 357 358 4 7 7 10 8 11 21 33 34 28 352 10 6 1 341 346 351 349 302 312 346 339 318 322 306 264 249 263 302 20 28 344 330 336 331 277 108 67 22 7 71 33 21
353 355 356 358 0 3 5 10 9 10 12 22 29 27 13 326 346 345 345 347 338 351 347 307 345 321 316 315 303 286 199 192 3 44 31 16 316 337 339 50 127 73 11 1 344 56 14
349 353 354 358 358 359 1 8 11 10 8 10 18 21 345 318 53 327 333 346 347 347 350 359 339 349 349 279 313 341 28 331 358 351 10 117 209 297 341 36 36 4 342 331 304 75 8
346 349 352 356 359 357 357 4 6 6 6 4 353 1 355 310 297 340 4 335 334 340 321 335 345 344 355 355 15 4 17 347 349 355 339 358 340 20 15 12 96 359 329 319 303 7 353
343 345 352 356 357 356 356 360 359 1 360 359 345 350 354 268 290 283 312 306 328 346 345 332 313 15 351 11 356 13 330 20 291 1 343 358 325 25 332 2 27 353 6 40 335 352 14
338 343 352 353 355 355 354 354 352 351 353 358 347 349 343 224 255 279 270 282 281 321 324 340 353 354 350 313 4 307 316 304 331 359 17 3 3 339 4 37 47 25 42 18 16 20 20